| time (UTC) | temp C | wind direction | speed KPH | gust KPH | rain 1hr cm | rain 24hr cm | rain mn cm | humidity % | barometer mb |
| 20260503212334 | 15 | 231 | 3.2 | 11.3 | 0.00 | 0.00 | 0.00 | 54 | 1017.0 |
| 20260503211320 | 15 | 221 | 3.2 | 6.4 | 0.00 | 0.00 | 0.00 | 54 | 1016.9 |
| 20260503210339 | 15 | 255 | 1.6 | 6.4 | 0.00 | 0.00 | 0.00 | 56 | 1016.9 |
| 20260503205336 | 15 | 219 | 3.2 | 4.8 | 0.00 | 0.00 | 0.00 | 58 | 1016.9 |
| 20260503204330 | 16 | 221 | 1.6 | 4.8 | 0.00 | 0.00 | 0.00 | 59 | 1016.9 |
| 20260503203355 | 16 | 238 | 0.0 | 3.2 | 0.00 | 0.00 | 0.00 | 59 | 1016.8 |
| 20260503202347 | 16 | 217 | 3.2 | 6.4 | 0.00 | 0.00 | 0.00 | 60 | 1016.8 |
| 20260503201326 | 16 | 160 | 0.0 | 0.0 | 0.00 | 0.00 | 0.00 | 60 | 1016.8 |
| 20260503200334 | 16 | 160 | 0.0 | 0.0 | 0.00 | 0.00 | 0.00 | 61 | 1016.8 |
| 20260503195335 | 17 | 160 | 0.0 | 0.0 | 0.00 | 0.00 | 0.00 | 62 | 1016.8 |
| 20260503194354 | 17 | 160 | 0.0 | 0.0 | 0.00 | 0.00 | 0.00 | 62 | 1016.8 |
| 20260503193337 | 17 | 160 | 0.0 | 0.0 | 0.00 | 0.00 | 0.00 | 62 | 1016.8 |
| 20260503192326 | 18 | 160 | 0.0 | 0.0 | 0.00 | 0.00 | 0.00 | 61 | 1016.8 |
| 20260503191333 | 18 | 160 | 0.0 | 0.0 | 0.00 | 0.00 | 0.00 | 60 | 1016.6 |
| 20260503190345 | 18 | 160 | 0.0 | 0.0 | 0.00 | 0.00 | 0.00 | 60 | 1016.6 |
| 20260503185327 | 18 | 185 | 0.0 | 0.0 | 0.00 | 0.00 | 0.00 | 60 | 1016.6 |
| 20260503184322 | 18 | 185 | 0.0 | 0.0 | 0.00 | 0.00 | 0.00 | 60 | 1016.5 |
| 20260503183346 | 19 | 186 | 0.0 | 0.0 | 0.00 | 0.00 | 0.00 | 60 | 1016.4 |
| 20260503182323 | 19 | 185 | 0.0 | 3.2 | 0.00 | 0.00 | 0.00 | 60 | 1016.4 |
| 20260503181323 | 19 | 228 | 1.6 | 3.2 | 0.00 | 0.00 | 0.00 | 61 | 1016.4 |
| 20260503180346 | 20 | 198 | 1.6 | 6.4 | 0.00 | 0.00 | 0.00 | 61 | 1016.3 |
| 20260503175359 | 20 | 115 | 3.2 | 6.4 | 0.00 | 0.00 | 0.00 | 60 | 1016.2 |
| 20260503174324 | 20 | 107 | 3.2 | 8.0 | 0.00 | 0.00 | 0.00 | 61 | 1016.2 |
| 20260503173348 | 20 | 103 | 4.8 | 11.3 | 0.00 | 0.00 | 0.00 | 60 | 1016.3 |
| 20260503172341 | 20 | 60 | 4.8 | 11.3 | 0.00 | 0.00 | 0.00 | 61 | 1016.3 |
| 20260503171343 | 20 | 129 | 4.8 | 14.5 | 0.00 | 0.00 | 0.00 | 61 | 1016.4 |
| 20260503170345 | 20 | 120 | 6.4 | 12.9 | 0.00 | 0.00 | 0.00 | 60 | 1016.4 |
| 20260503150332 | 20 | 70 | 8.0 | 20.9 | 0.00 | 0.00 | 0.00 | 58 | 1017.2 |
| 20260503131343 | 20 | 97 | 8.0 | 14.5 | 0.00 | 0.00 | 0.00 | 50 | 1018.1 |
| 20260503130343 | 19 | 68 | 6.4 | 14.5 | 0.00 | 0.00 | 0.00 | 46 | 1018.3 |
| 20260503110401 | 21 | 94 | 9.7 | 16.1 | 0.00 | 0.00 | 0.00 | 60 | 1018.6 |
| 20260503090347 | 22 | 69 | 4.8 | 9.7 | 0.00 | 0.00 | 0.00 | 47 | 1019.6 |
| 20260503081324 | 21 | 233 | 3.2 | 12.9 | 0.00 | 0.00 | 0.00 | 48 | 1019.8 |
| 20260503080352 | 20 | 221 | 6.4 | 14.5 | 0.00 | 0.00 | 0.00 | 49 | 1019.9 |
| 20260503072324 | 18 | 207 | 1.6 | 9.7 | 0.00 | 0.00 | 0.00 | 53 | 1019.8 |
| 20260503071320 | 18 | 205 | 4.8 | 9.7 | 0.00 | 0.00 | 0.00 | 55 | 1019.9 |
| 20260503070349 | 17 | 219 | 8.0 | 16.1 | 0.00 | 0.00 | 0.00 | 56 | 1019.9 |
| 20260503060337 | 13 | 231 | 8.0 | 17.7 | 0.00 | 0.00 | 0.00 | 62 | 1019.9 |
| 20260503054326 | 12 | 252 | 8.0 | 14.5 | 0.00 | 0.00 | 0.00 | 61 | 1019.8 |
| 20260503053341 | 12 | 204 | 8.0 | 16.1 | 0.00 | 0.00 | 0.00 | 58 | 1019.7 |
| 20260503052327 | 11 | 221 | 6.4 | 17.7 | 0.00 | 0.00 | 0.00 | 56 | 1019.7 |
| 20260503051356 | 11 | 224 | 6.4 | 12.9 | 0.00 | 0.00 | 0.00 | 54 | 1019.7 |
| 20260503050347 | 11 | 195 | 6.4 | 14.5 | 0.00 | 0.00 | 0.00 | 52 | 1019.6 |
| 20260503045322 | 11 | 234 | 6.4 | 14.5 | 0.00 | 0.00 | 0.00 | 50 | 1019.6 |
| 20260503044338 | 10 | 223 | 9.7 | 17.7 | 0.00 | 0.00 | 0.00 | 50 | 1019.6 |
| 20260503043414 | -17 | 0.0 | 0.0 | 0.00 | 0.00 | 0.00 | 1019.6 | ||
| 20260503042335 | -17 | 0.0 | 0.0 | 0.00 | 0.00 | 0.00 | 1019.5 | ||
| 20260503040331 | -17 | 0.0 | 0.0 | 0.00 | 0.00 | 0.00 | 1019.5 | ||
| 20260503035354 | -17 | 0.0 | 0.0 | 0.00 | 0.00 | 0.00 | 1019.5 | ||
| 20260503034436 | -17 | 0.0 | 0.0 | 0.00 | 0.00 | 0.00 | 1019.5 | ||
| 20260503033351 | -17 | 0.0 | 0.0 | 0.00 | 0.00 | 0.00 | 1019.6 | ||
| 20260503031323 | 10 | 190 | 9.7 | 16.1 | 0.00 | 0.00 | 0.00 | 43 | 1019.5 |
| 20260503030336 | 10 | 203 | 8.0 | 14.5 | 0.00 | 0.00 | 0.00 | 43 | 1019.6 |
| 20260503025359 | 10 | 221 | 9.7 | 16.1 | 0.00 | 0.00 | 0.00 | 43 | 1019.7 |
| 20260503024325 | 10 | 235 | 6.4 | 11.3 | 0.00 | 0.00 | 0.00 | 44 | 1019.7 |
| 20260503023358 | 10 | 230 | 8.0 | 12.9 | 0.00 | 0.00 | 0.00 | 44 | 1019.7 |
| 20260503022359 | 10 | 221 | 8.0 | 12.9 | 0.00 | 0.00 | 0.00 | 44 | 1019.8 |
| 20260503021411 | 10 | 226 | 8.0 | 12.9 | 0.00 | 0.00 | 0.00 | 45 | 1019.8 |
| 20260503020350 | 10 | 220 | 8.0 | 12.9 | 0.00 | 0.00 | 0.00 | 46 | 1019.9 |
| 20260503015325 | 10 | 255 | 6.4 | 12.9 | 0.00 | 0.00 | 0.00 | 46 | 1019.9 |
| 20260503014344 | 10 | 199 | 8.0 | 16.1 | 0.00 | 0.00 | 0.00 | 45 | 1019.8 |
| 20260503013351 | 10 | 218 | 4.8 | 14.5 | 0.00 | 0.00 | 0.00 | 46 | 1019.9 |
| 20260503012331 | 10 | 251 | 8.0 | 14.5 | 0.00 | 0.00 | 0.00 | 46 | 1019.9 |
| 20260503011319 | 10 | 219 | 4.8 | 11.3 | 0.00 | 0.00 | 0.00 | 47 | 1020.1 |
| 20260503010329 | 10 | 233 | 4.8 | 11.3 | 0.00 | 0.00 | 0.00 | 47 | 1020.2 |
| 20260503005333 | 10 | 210 | 4.8 | 12.9 | 0.00 | 0.00 | 0.00 | 47 | 1020.2 |
| 20260503004338 | 10 | 195 | 6.4 | 12.9 | 0.00 | 0.00 | 0.00 | 49 | 1020.3 |
| 20260503003338 | 10 | 225 | 4.8 | 11.3 | 0.00 | 0.00 | 0.00 | 51 | 1020.5 |
| 20260503002340 | 10 | 193 | 3.2 | 11.3 | 0.00 | 0.00 | 0.00 | 51 | 1020.5 |
| 20260503001325 | 10 | 224 | 6.4 | 12.9 | 0.00 | 0.00 | 0.00 | 51 | 1020.6 |
| 20260503000338 | 10 | 246 | 6.4 | 11.3 | 0.00 | 0.00 | 0.00 | 52 | 1020.8 |
| 20260502235431 | 10 | 225 | 4.8 | 11.3 | 0.00 | 0.00 | 0.00 | 51 | 1020.8 |
| 20260502234332 | 10 | 250 | 4.8 | 12.9 | 0.00 | 0.00 | 0.00 | 52 | 1020.9 |
| 20260502233346 | 11 | 200 | 6.4 | 14.5 | 0.00 | 0.00 | 0.00 | 52 | 1020.9 |
| 20260502232323 | 11 | 198 | 4.8 | 12.9 | 0.00 | 0.00 | 0.00 | 53 | 1021.0 |
| 20260502231331 | 11 | 210 | 6.4 | 16.1 | 0.00 | 0.00 | 0.00 | 53 | 1021.0 |
| 20260502230345 | 11 | 221 | 4.8 | 11.3 | 0.00 | 0.00 | 0.00 | 54 | 1021.2 |
| 20260502225320 | 11 | 198 | 6.4 | 11.3 | 0.00 | 0.00 | 0.00 | 55 | 1021.2 |
| 20260502224333 | 11 | 196 | 4.8 | 14.5 | 0.00 | 0.00 | 0.00 | 55 | 1021.3 |
| 20260502223407 | 11 | 229 | 6.4 | 14.5 | 0.00 | 0.00 | 0.00 | 56 | 1021.4 |
| 20260502222329 | 11 | 227 | 6.4 | 12.9 | 0.00 | 0.00 | 0.00 | 57 | 1021.4 |
| 20260502221359 | 11 | 251 | 6.4 | 11.3 | 0.00 | 0.00 | 0.00 | 58 | 1021.4 |
| 20260502220333 | 11 | 215 | 1.6 | 6.4 | 0.00 | 0.00 | 0.00 | 60 | 1021.5 |
| 20260502215320 | 12 | 207 | 3.2 | 8.0 | 0.00 | 0.00 | 0.00 | 60 | 1021.5 |
| 20260502214346 | 12 | 227 | 3.2 | 8.0 | 0.00 | 0.00 | 0.00 | 60 | 1021.6 |
| 20260502213334 | 12 | 220 | 3.2 | 8.0 | 0.00 | 0.00 | 0.00 | 61 | 1021.6 |